Date,TemperatureHighF,TemperatureAvgF,TemperatureLowF,DewpointHighF,DewpointAvgF,DewpointLowF,HumidityHigh,HumidityAvg,HumidityLow,PressureMaxIn,PressureMinIn,WindSpeedMaxMPH,WindSpeedAvgMPH,GustSpeedMaxMPH,PrecipitationSumIn
2013-2-1,31.6,22.6,20.3,17.6,-7.9,-99.9,62,42,39,30.04,29.51,51,-144,51,0.00
2013-2-2,28.8,19.6,16.6,14.8,-9.1,-99.9,70,45,42,30.23,30.04,34,-153,34,0.00
2013-2-3,26.8,20.6,22.6,21.3,-4.3,-99.9,87,59,58,30.06,29.71,32,-172,32,0.00
2013-2-4,28.3,21.0,21.5,18.1,-8.5,-99.9,78,44,37,29.91,29.69,53,-144,53,0.00
2013-2-5,28.2,19.4,18.3,21.6,-8.3,-99.9,77,47,41,30.05,29.91,37,-158,37,0.00
2013-2-6,35.9,25.0,23.0,25.9,-0.3,-99.9,93,56,35,30.30,29.94,44,-155,44,0.00
2013-2-7,25.6,18.2,15.7,16.4,-13.4,-99.9,68,37,30,30.54,30.28,46,-142,46,0.00
2013-2-8,31.7,21.9,19.4,29.3,-1.0,-99.9,96,70,67,30.52,29.63,81,-174,81,0.03
2013-2-9,22.3,14.9,16.8,17.7,-14.5,-99.9,93,59,62,30.17,29.52,87,-204,87,0.01
2013-2-10,35.7,23.2,16.2,18.2,-6.2,-99.9,72,41,29,30.40,30.16,41,-123,41,0.00
2013-2-11,40.5,29.3,30.0,39.4,8.4,-99.9,99,70,40,30.36,29.59,41,-160,41,0.07
2013-2-12,42.7,32.5,33.7,34.9,10.5,-99.9,99,64,57,29.82,29.56,40,-135,40,0.00
2013-2-13,41.2,30.5,32.6,30.0,4.8,-99.9,79,54,54,29.85,29.68,25,-159,25,0.00
2013-2-14,39.9,31.2,33.4,29.8,6.6,-99.9,76,55,48,29.97,29.66,28,-142,28,0.00
2013-2-15,44.8,34.6,34.5,38.1,15.6,-99.9,89,67,51,29.97,29.87,28,-117,28,0.00
2013-2-16,41.4,28.9,30.2,33.0,7.6,-99.9,95,67,49,29.93,29.69,40,-154,40,0.00
2013-2-17,30.2,17.8,16.5,20.0,-8.6,-99.9,93,56,47,29.69,29.25,71,-152,71,0.95
2013-2-18,30.2,20.2,14.7,10.2,-11.2,-99.9,72,39,25,30.11,29.56,60,-122,60,0.02
2013-2-19,42.2,30.5,25.2,41.1,8.9,-99.9,97,61,37,30.14,29.55,42,-116,42,0.18
2013-2-20,40.7,26.5,27.5,40.2,-0.4,-99.9,98,54,52,29.73,29.47,46,-162,46,0.00
2013-2-21,30.2,23.1,22.4,21.8,0.0,-99.9,72,54,53,30.16,29.71,45,-106,45,0.00
2013-2-22,30.2,29.6,28.9,22.5,21.4,20.6,74,71,69,30.22,30.15,36,28,36,0.00
2013-2-23,38.1,30.7,35.2,35.3,9.7,-99.9,93,68,69,30.33,29.95,23,11,0,0.03
2013-2-24,37.4,25.8,29.6,35.8,4.6,-99.9,98,78,91,29.95,29.69,43,23,30,0.02
2013-2-25,36.5,28.6,28.8,34.7,12.9,-99.9,98,78,84,30.23,29.89,26,-128,26,0.00
2013-2-26,41.1,32.8,34.3,35.6,13.6,-99.9,93,67,60,30.34,30.18,26,-129,26,0.00
2013-2-27,41.8,32.8,35.8,40.2,15.7,-99.9,99,78,72,30.19,29.52,50,-125,50,0.23
2013-2-28,42.8,30.0,33.1,39.9,7.6,-99.9,100,72,79,29.62,29.48,47,-194,47,0.00